Regional Weather Roundup
Issued by NWS Newport/Morehead, NC

Current Version | Previous Version | Graphics & Text | Print | Product List | Glossary Off
Versions: 1 2 3 4 5 6 7 8 9 10 11 12 13 14 15 16 17 18 19 20 21 22 23 24 25 26 27 28 29 30 31 32 33 34 35 36 37 38 39 40 41 42 43 44 45 46 47 48 49 50

000
ASUS42 KMHX 110425
RWRMHX
WEATHER ROUNDUP FOR EASTERN NORTH CAROLINA
NATIONAL WEATHER SERVICE NEWPORT/MOREHEAD CITY NC
1100 PM EST SAT DEC 10 2016

NOTE: "FAIR" INDICATES FEW OR NO CLOUDS BELOW 12,000 FEET
WITH NO SIGNIFICANT WEATHER AND/OR OBSTRUCTIONS TO VISIBILITY

NCZ015>017-031-032-045>047-102-103-110500-
NORTH COAST

CITY           SKY/WX    TMP DP  RH WIND       PRES   REMARKS
EDENTON        NOT AVBL
ELIZABETH CITY CLEAR     28  23  81 CALM      30.55R
KITTY HAWK     CLEAR     35  22  59 CALM      30.52F
MANTEO         CLEAR     34  17  49 N6        30.54S

$$

NCZ045>047-081-094-103-104-110500-
CENTRAL COAST

CITY           SKY/WX    TMP DP  RH WIND       PRES   REMARKS
FRISCO         CLEAR     39  22  50 VRB3      30.53R

$$

NCZ095-097-098-100-101-110500-
SOUTHERN COAST

CITY           SKY/WX    TMP DP  RH WIND       PRES   REMARKS
BEAUFORT       CLEAR     35  21  56 NE5       30.53S
CEDAR ISLAND   NOT AVBL
JACKSONVILLE   CLEAR     27  23  85 CALM      30.53S
PINEY ISLAND   CLEAR    N/A N/A N/A N6        30.53S
WILMINGTON     CLEAR     28  25  88 CALM      30.54S


$$

NCZ011>013-027>030-043-044-078>080-089-090>093-098-110500-
COASTAL PLAIN

CITY           SKY/WX    TMP DP  RH WIND       PRES   REMARKS
AHOSKIE        PTCLDY    24  20  87 CALM      30.55R
CLINTON        CLEAR     28  24  85 CALM      30.54S
ELIZABETHTOWN  CLEAR     27  23  83 CALM      30.53S
GOLDSBORO      CLEAR     27  20  73 CALM      30.53R
GREENVILLE     CLEAR     27  25  93 CALM      30.53F
HAVELOCK       CLEAR     27  22  81 CALM      30.54S
KENANSVILLE    CLEAR     25  21  86 CALM      30.54R
KINSTON        CLEAR     24  21  90 CALM      30.55R
NEW BERN       CLEAR     27  23  85 CALM      30.55S
RICHLANDS      CLEAR     22  20  92 CALM      30.54R
ROCKY MOUNT    CLEAR     26  23  88 CALM      30.54R
WASHINGTON     CLEAR     26  20  79 CALM      30.54F
WHITEVILLE     CLEAR     28  25  89 CALM      30.52F

$$

AMZ130-135-150-152-154-156-158-170-250-252-270-ANZ085-086-088-633-658-670-110500-
MARINE OBSERVATIONS

STATION/POSITION TIME  TEMP    WIND        PRES    WAVE   SWELL
                       AIR SEA DIR/SP/G            HT/PER HT/PER
                 (UTC) (F)     (DEG/KT/KT) (MB)    (FT/S) (FT/S)
CHESAPEAKE LIGHT NOT AVBL
64 E VA BEACH    0350   41 58  340/ 12/ 16 1033.3    3/ 4   2/ 6
DUCK             0400   38 51  310/  4/  4 1033.4
2 E DUCK         NOT AVBL
OREGON INLET     0400   34 46  330/  5/  7 1033.9
13E OREGON INLT  NOT AVBL
HATTERAS CG      0400   41 51  340/ 12/ 14 1033.3
DIAMOND BUOY     0350   44 77  360/ 12/ 16 1033.4    4/ 8   3/ 8
CAPE LOOKOUT     0400   39     350/ 11/ 13 1033.4
BEAUFORT LAB     0400   38 49   30/  4/  7 1032.7
30 SE NEW RVR IN 0408   45 68   10/ 12/ 16 1033.7
30 SE NEW RVR IN 0413      68                N/A     2/ 3
27 SE WRIGHTSVLE 0408   46 68   30/ 12/ 21 1033.4
5 SE WRIGHTSVLE  0408   41 60   20/ 16/ 23 1032.9
225 S CAPE HAT   0350   60 73   30/  6/  8 1030.6    4/ 8   3/ 8
41 SE CHARLESTON 0350   53 74   40/ 14/ 17 1031.8    2/ 5   2/ 8

$$



USA.gov is the U.S. government's official web portal to all federal, state and local government web resources and services.